This is the latest recevied weather packets stored in our database for station/object WD0REW. If no packets are shown the sender has not sent any weather packets the latest 10 day(s).
| Time | Temp. | Humidity | Pressure | Rain* | Wind** | Luminosity | Snow |
|---|---|---|---|---|---|---|---|
| 1777730000 | 12.78° C | 56% | 1020.8 hPa | 0 mm | - | 329 W/m² | - |
| 1777729695 | 12.22° C | 61% | 1020.9 hPa | 0 mm | - | 325 W/m² | - |
| 1777729393 | 11.67° C | 61% | 1020.8 hPa | 0 mm | - | 197 W/m² | - |
| 1777729089 | 11.67° C | 59% | 1020.7 hPa | 0 mm | - | 121 W/m² | - |
| 1777728786 | 11.67° C | 62% | 1020.7 hPa | 0 mm | - | 82 W/m² | - |
| 1777728483 | 11.67° C | 63% | 1020.7 hPa | 0 mm | - | 122 W/m² | - |
| 1777728180 | 11.11° C | 61% | 1020.8 hPa | 0 mm | - | 249 W/m² | - |
| 1777727877 | 11.11° C | 64% | 1020.5 hPa | 0 mm | - | 208 W/m² | - |
| 1777727574 | 10.56° C | 66% | 1020.7 hPa | 0 mm | - | 188 W/m² | - |
| 1777727271 | 10° C | 69% | 1020.5 hPa | 0 mm | - | 172 W/m² | - |
| 1777726969 | 10° C | 68% | 1020.5 hPa | 0 mm | - | 137 W/m² | - |
| 1777726665 | 9.44° C | 70% | 1020.6 hPa | 0 mm | - | 104 W/m² | - |
| 1777726363 | 8.89° C | 73% | 1020.4 hPa | 0 mm | - | 84 W/m² | - |
| 1777726059 | 8.89° C | 75% | 1020.4 hPa | 0 mm | - | 68 W/m² | - |
| 1777725756 | 8.33° C | 76% | 1020.5 hPa | 0 mm | - | 56 W/m² | - |
| 1777725455 | 7.78° C | 77% | 1020.5 hPa | 0 mm | - | 37 W/m² | - |
| 1777725151 | 7.78° C | 77% | 1020.5 hPa | 0 mm | - | 36 W/m² | - |
| 1777724848 | 7.22° C | 79% | 1020.6 hPa | 0 mm | - | 29 W/m² | - |
| 1777724544 | 6.67° C | 83% | 1020.3 hPa | 0 mm | - | 27 W/m² | - |
| 1777724243 | 6.11° C | 85% | 1020.1 hPa | 0 mm | - | 25 W/m² | - |
| 1777723940 | 6.11° C | 86% | 1020.1 hPa | 0 mm | - | 23 W/m² | - |
| 1777723636 | 5.56° C | 86% | 1020 hPa | 0 mm | - | 21 W/m² | - |
| 1777723333 | 5.56° C | 88% | 1019.9 hPa | 0 mm | - | 19 W/m² | - |
| 1777723031 | 5.56° C | 88% | 1019.7 hPa | 0 mm | - | 17 W/m² | - |
| 1777722727 | 5.56° C | 89% | 1019.8 hPa | 0 mm | - | 15 W/m² | - |
* Rain latest hour (hover to see other rain measurements)
** Current wind speed in m/s (hover to see current wind gust speed)